Location: ????
(30.2663°N, 31.2484°E)
Time: 07:52:14
(UTC+00:00)

DELTA 2 R/B (1) - Pass Details

Date: 27 September 2022
Orbit: 789 x 803 km, 39.6° (Epoch: 28 November)

Event Time Altitude Azimuth Distance (km) Brightness Sun altitude
Exits shadow 01:49:08 66° 315° (NW) 868 3.5 -25.8°
Maximum altitude 01:49:24 67° 335° (NNW) 861 3.6 -25.8°
Drops below altitude 10° 01:54:59 10° 58° (ENE) 2,368 7.0 -24.6°
Sets 01:57:29 0° 61° (ENE) 3,298 8.0 -24.1°
